TOURFACTS.DK  
Stats and Facts from Tour de France.

Tour de France 2018 starts in 258 days
  Riders   Stages   Teams   Summits   Yearly  


 
Search by year

 2017 - St. 21:  14824 starters.
  5131 different riders.
  634 teams.
  2232 stages.
  454 restdays.
  439589.60 km.
  5653 abandonnees.


Top 3
Christopher Froome86:20:55
Rigoberto Uran86:21:49
Romain Bardet86:23:15
Warren Barguil169 pt.
Primoz Roglic80 pt.
Thomas De Gendt64 pt.
Michael Matthews359 pt.
André Greipel234 pt.
Edvald Boasson Hagen220 pt.
Simon Yates86:27:09
Louis Meintjes86:29:15
Emanuel Buchmann86:54:16
Facts from Tour de France 2017
  |   Stages.  |   Stage winners.  |   Days in yellow  |   Average speed.  |   Route.  |   Teams.  |   All riders.  |   Rookies.  |   Withdrawls.  |  

  |   GC.  |   Polka  |   Green  |   White  |   Summits. (In tour)  |   Summits. (Points)  |   Miscellaneous.  |  

Stage 1 on 01 - 07 - 2017
         Owning:    Geraint Thomas      Geraint Thomas      Stefan Küng  

Pick a stage:  1 2 3 4 5 6 7 8 9 10 11 12 13 14 15 16 17 18 19 20 21
  DüsseldorfDüsseldorf | Dist: 14.00 km.

Average speed for all riders in stage:  48,874 km./hr.
    Place:Name:Team:Time:Km/h:
WALGeraint ThomasGBRSky Procycling00:16:04  +  00:00:00=52,282 
SUIStefan KüngUSABMC Racing Team00:16:09  +  00:00:05=52,012 
BLRVasil KiryienkaGBRSky Procycling00:16:11  +  00:00:07=51,905 
4 GERTony MartinCHETeam Katusha - Alpecin00:16:12  +  00:00:08=51,852 
5 ITAMatteo TrentinBELQuick-Step Floors00:16:14  +  00:00:10=51,745 
6 KENChristopher FroomeGBRSky Procycling00:16:16  +  00:00:12=51,639 
7 NEDJos Van EmdenNLDTeam Lotto NL - Jumbo00:16:19  +  00:00:15=51,481 
8 POLMichal KwiatkowskiGBRSky Procycling00:16:19  +  00:00:15=51,481 
9 GERMarcel KittelBELQuick-Step Floors00:16:20  +  00:00:16=51,429 
10 NOREdvald Boasson HagenZAFDimension Data00:16:20  +  00:00:16=51,429 
11 GERNikias ArndtDEUTeam Sunweb00:16:20  +  00:00:16=51,429 
12 USATaylor PhinneyUSACannondale-Drapac Pro Cycling ..00:16:21  +  00:00:17=51,376 
13 UKRAndriy GrivkoKAZAstana Pro Team00:16:21  +  00:00:17=51,376 
14 RSADaryl ImpeyAUSOrica - Scott00:16:23  +  00:00:19=51,272 
15 ESPJonathan CastroviejoESPMovistar Team00:16:24  +  00:00:20=51,220 
16 AUSMichael MatthewsDEUTeam Sunweb00:16:24  +  00:00:20=51,220 
17 FRAPierre-Roger LatourFRAAg2r La Mondiale00:16:29  +  00:00:25=50,961 
18 SVKPeter SaganDEUBora–Hansgrohe00:16:29  +  00:00:25=50,961 
19 CRCAndrey AmadorESPMovistar Team00:16:31  +  00:00:27=50,858 
20 KAZAlexey LutsenkoKAZAstana Pro Team00:16:33  +  00:00:29=50,755 
21 BELPhilippe GilbertBELQuick-Step Floors00:16:34  +  00:00:30=50,704 
22 NEDRobert GesinkNLDTeam Lotto NL - Jumbo00:16:35  +  00:00:31=50,653 
23 ITASonny ColbrelliBHRBahrain-Merida00:16:36  +  00:00:32=50,602 
24 BELTim WellensBELLotto Soudal00:16:36  +  00:00:32=50,602 
25 POLMaciej BodnarDEUBora–Hansgrohe00:16:37  +  00:00:33=50,552 
26 NEDTimo RoosenNLDTeam Lotto NL - Jumbo00:16:38  +  00:00:34=50,501 
27 NORAlexander KristoffCHETeam Katusha - Alpecin00:16:40  +  00:00:36=50,400 
28 SUIReto HollensteinCHETeam Katusha - Alpecin00:16:40  +  00:00:36=50,400 
29 ENGSimon YatesAUSOrica - Scott00:16:41  +  00:00:37=50,350 
30 ITAFabio FellineUSATrek – Segafredo00:16:41  +  00:00:37=50,350 
31 CZEZdenek StybarBELQuick-Step Floors00:16:43  +  00:00:39=50,249 
32 ITAAlessandro De MarchiUSABMC Racing Team00:16:43  +  00:00:39=50,249 
33 GEREmanuel BuchmannDEUBora–Hansgrohe00:16:44  +  00:00:40=50,199 
34 GERPaul MartensNLDTeam Lotto NL - Jumbo00:16:44  +  00:00:40=50,199 
35 ESPJesus HerradaESPMovistar Team00:16:44  +  00:00:40=50,199 
36 GERJasha SütterlinESPMovistar Team00:16:45  +  00:00:41=50,149 
37 NEDMike TeunissenDEUTeam Sunweb00:16:45  +  00:00:41=50,149 
38 GERNils PolittCHETeam Katusha - Alpecin00:16:45  +  00:00:41=50,149 
39 BELGreg Van AvermaetUSABMC Racing Team00:16:46  +  00:00:42=50,099 
40 SUIMichael AlbasiniAUSOrica - Scott00:16:46  +  00:00:42=50,099 
41 AUSDamien HowsonAUSOrica - Scott00:16:47  +  00:00:43=50,050 
42 ITADiego UlissiUAEUAE Team Emirates00:16:47  +  00:00:43=50,050 
43 SUIMichael SchärUSABMC Racing Team00:16:48  +  00:00:44=50,000 
44 NEDDylan Van BaarleUSACannondale-Drapac Pro Cycling ..00:16:48  +  00:00:44=50,000 
45 GERRobert WagnerNLDTeam Lotto NL - Jumbo00:16:49  +  00:00:45=49,950 
46 URSIgnatas KonovalovasFRAFDJ00:16:50  +  00:00:46=49,901 
47 GERSimon GeschkeDEUTeam Sunweb00:16:50  +  00:00:46=49,901 
48 ITADamiano CarusoUSABMC Racing Team00:16:51  +  00:00:47=49,852 
49 AUSRichie PorteUSABMC Racing Team00:16:51  +  00:00:47=49,852 
50 ESPImanol ErvitiESPMovistar Team00:16:52  +  00:00:48=49,802 
51 FRASylvain ChavanelFRADirect Energie00:16:52  +  00:00:48=49,802 
52 COLJarlinson Pantano GomezUSATrek – Segafredo00:16:52  +  00:00:48=49,802 
53 COLNairo QuintanaESPMovistar Team00:16:52  +  00:00:48=49,802 
54 POLRafal MajkaDEUBora–Hansgrohe00:16:53  +  00:00:49=49,753 
55 USAAndrew TalanskyUSACannondale-Drapac Pro Cycling ..00:16:53  +  00:00:49=49,753 
56 NZLJack BauerBELQuick-Step Floors00:16:53  +  00:00:49=49,753 
57 ENGDaniel MartinBELQuick-Step Floors00:16:53  +  00:00:49=49,753 
58 GERJohn DegenkolbUSATrek – Segafredo00:16:53  +  00:00:49=49,753 
59 FRAArnaud DémareFRAFDJ00:16:53  +  00:00:49=49,753 
60 FRAThibaut PinotFRAFDJ00:16:54  +  00:00:50=49,704 
61 FRARomain SicardFRADirect Energie00:16:54  +  00:00:50=49,704 
62 NEDAlbert TimmerDEUTeam Sunweb00:16:55  +  00:00:51=49,655 
63 FRARomain BardetFRAAg2r La Mondiale00:16:55  +  00:00:51=49,655 
64 ITAAlberto BettiolUSACannondale-Drapac Pro Cycling ..00:16:56  +  00:00:52=49,606 
65 SLOPrimoz RoglicNLDTeam Lotto NL - Jumbo00:16:56  +  00:00:52=49,606 
66 ITAFabio AruKAZAstana Pro Team00:16:56  +  00:00:52=49,606 
67 FRALilian CalmejaneFRADirect Energie00:16:57  +  00:00:53=49,558 
68 ESPAlberto ContadorUSATrek – Segafredo00:16:58  +  00:00:54=49,509 
69 COLCarlos Alberto BetancurESPMovistar Team00:16:58  +  00:00:54=49,509 
70 SUIJakob FuglsangKAZAstana Pro Team00:16:58  +  00:00:54=49,509 
71 NEDKoen De KortUSATrek – Segafredo00:16:58  +  00:00:54=49,509 
72 KAZDmitriy GruzdevKAZAstana Pro Team00:16:58  +  00:00:54=49,509 
73 DENMichael ValgrenKAZAstana Pro Team00:16:59  +  00:00:55=49,460 
74 ITADario CataldoKAZAstana Pro Team00:16:59  +  00:00:55=49,460 
75 ENGStephen CummingsZAFDimension Data00:17:00  +  00:00:56=49,412 
76 ITADaniele BennatiESPMovistar Team00:17:00  +  00:00:56=49,412 
77 GERChristian KneesGBRSky Procycling00:17:00  +  00:00:56=49,412 
78 CZERoman KreuzigerAUSOrica - Scott00:17:00  +  00:00:56=49,412 
79 GERAndré GreipelBELLotto Soudal00:17:01  +  00:00:57=49,363 
80 BELJulien VermoteBELQuick-Step Floors00:17:02  +  00:00:58=49,315 
81 FRAWarren BarguilDEUTeam Sunweb00:17:03  +  00:00:59=49,267 
82 FRARudy MolardFRAFDJ00:17:03  +  00:00:59=49,267 
83 FRAPierre-Luc PérichonFRAFortuneo - Vital Concept00:17:03  +  00:00:59=49,267 
84 DENLars BakBELLotto Soudal00:17:03  +  00:00:59=49,267 
85 BELJürgen RoelandtsBELLotto Soudal00:17:04  +  00:01:00=49,219 
86 SUIDanilo WyssUSABMC Racing Team00:17:04  +  00:01:00=49,219 
87 FRANicolas EdetFRACofidis – Solutions Crédits00:17:04  +  00:01:00=49,219 
88 AUSMathew HaymanAUSOrica - Scott00:17:05  +  00:01:01=49,171 
89 FRACyril LemoineFRACofidis – Solutions Crédits00:17:05  +  00:01:01=49,171 
90 FRAAlexis VuillermozFRAAg2r La Mondiale00:17:06  +  00:01:02=49,123 
91 AUSSimon ClarkeUSACannondale-Drapac Pro Cycling ..00:17:06  +  00:01:02=49,123 
92 ESPMarkel IrizarUSATrek – Segafredo00:17:06  +  00:01:02=49,123 
93 NEDLaurens ten DamDEUTeam Sunweb00:17:07  +  00:01:03=49,075 
94 NEDMaurits LammertinkCHETeam Katusha - Alpecin00:17:07  +  00:01:03=49,075 
95 COLRigoberto UranUSACannondale-Drapac Pro Cycling ..00:17:07  +  00:01:03=49,075 
96 BELJens KeukeleireAUSOrica - Scott00:17:08  +  00:01:04=49,027 
97 FRAMaxime BouetFRAFortuneo - Vital Concept00:17:08  +  00:01:04=49,027 
98 PORTiago PintoCHETeam Katusha - Alpecin00:17:08  +  00:01:04=49,027 
99 BELJan BakelantsFRAAg2r La Mondiale00:17:09  +  00:01:05=48,980 
100 ESPHaimar ZubeldiaUSATrek – Segafredo00:17:10  +  00:01:06=48,932 
101 USANathan BrownUSACannondale-Drapac Pro Cycling ..00:17:10  +  00:01:06=48,932 
102 ESPMikel Landa MeanaGBRSky Procycling00:17:12  +  00:01:08=48,837 
103 ENGBen SwiftUAEUAE Team Emirates00:17:12  +  00:01:08=48,837 
104 SUIMathias FrankFRAAg2r La Mondiale00:17:13  +  00:01:09=48,790 
105 ARGEduardo SepulvedaFRAFortuneo - Vital Concept00:17:13  +  00:01:09=48,790 
106 RSAReinardt Janse Van RensburgZAFDimension Data00:17:13  +  00:01:09=48,790 
107 BELSerge PauwelsZAFDimension Data00:17:14  +  00:01:10=48,743 
108 ETHTsgabu Gebremaryan GrmayBHRBahrain-Merida00:17:14  +  00:01:10=48,743 
109 AUSJay McCarthyDEUBora–Hansgrohe00:17:14  +  00:01:10=48,743 
110 AUTMichael GoglUSATrek – Segafredo00:17:14  +  00:01:10=48,743 
111 GERMarcel SiebergBELLotto Soudal00:17:15  +  00:01:11=48,696 
112 NORVegard Stake LaengenUAEUAE Team Emirates00:17:15  +  00:01:11=48,696 
113 RSALouis MeintjesUAEUAE Team Emirates00:17:16  +  00:01:12=48,649 
114 ENGDaniel McLayFRAFortuneo - Vital Concept00:17:16  +  00:01:12=48,649 
115 ITAManuele MoriUAEUAE Team Emirates00:17:16  +  00:01:12=48,649 
116 COLJohan Esteban ChavesAUSOrica - Scott00:17:17  +  00:01:13=48,602 
117 CZEOndrej CinkBHRBahrain-Merida00:17:17  +  00:01:13=48,602 
118 NEDRamon SinkeldamDEUTeam Sunweb00:17:17  +  00:01:13=48,602 
119 LUXBen GastauerFRAAg2r La Mondiale00:17:17  +  00:01:13=48,602 
120 FRAChristophe LaporteFRACofidis – Solutions Crédits00:17:18  +  00:01:14=48,555 
121 ITAFabio SabatiniBELQuick-Step Floors00:17:18  +  00:01:14=48,555 
122 FRANicolas RocheUSABMC Racing Team00:17:18  +  00:01:14=48,555 
123 BELTiesj BenootBELLotto Soudal00:17:19  +  00:01:15=48,508 
124 FRAPierre RollandUSACannondale-Drapac Pro Cycling ..00:17:20  +  00:01:16=48,462 
125 COLSergio Luis HenaoGBRSky Procycling00:17:20  +  00:01:16=48,462 
126 BELOliver NaesenFRAAg2r La Mondiale00:17:20  +  00:01:16=48,462 
127 FRAAxel DomontFRAAg2r La Mondiale00:17:20  +  00:01:16=48,462 
128 GERGianluca BrambillaBELQuick-Step Floors00:17:20  +  00:01:16=48,462 
129 BELFrederik BackaertBELWanty – Groupe Gobert00:17:21  +  00:01:17=48,415 
130 FRAFlorian VachonFRAFortuneo - Vital Concept00:17:21  +  00:01:17=48,415 
131 BELThomas De GendtBELLotto Soudal00:17:21  +  00:01:17=48,415 
132 NEDBauke MollemaUSATrek – Segafredo00:17:22  +  00:01:18=48,369 
133 ESPMikel NieveGBRSky Procycling00:17:24  +  00:01:20=48,276 
134 ESPJavier Moreno BazánBHRBahrain-Merida00:17:24  +  00:01:20=48,276 
135 FRAOlivier Le GacFRAFDJ00:17:24  +  00:01:20=48,276 
136 SLOGrega BoleBHRBahrain-Merida00:17:24  +  00:01:20=48,276 
137 BELDimitri ClaeysFRACofidis – Solutions Crédits00:17:24  +  00:01:20=48,276 
138 FRAElie GesbertFRAFortuneo - Vital Concept00:17:24  +  00:01:20=48,276 
139 NEDTom LeezerNLDTeam Lotto NL - Jumbo00:17:24  +  00:01:20=48,276 
140 ITAMatteo BonoUAEUAE Team Emirates00:17:24  +  00:01:20=48,276 
141 RSAJaco VenterZAFDimension Data00:17:24  +  00:01:20=48,276 
142 SLOJanez BrajkovicBHRBahrain-Merida00:17:24  +  00:01:20=48,276 
143 ITAMarco MarcatoUAEUAE Team Emirates00:17:25  +  00:01:21=48,230 
144 ITAAndrea PasqualonBELWanty – Groupe Gobert00:17:27  +  00:01:23=48,138 
145 FRAMickael DelageFRAFDJ00:17:27  +  00:01:23=48,138 
146 FRAFlorian SénéchalFRACofidis – Solutions Crédits00:17:28  +  00:01:24=48,092 
147 FRAAmaël MoinardUSABMC Racing Team00:17:29  +  00:01:25=48,046 
148 FRABrice FeilluFRAFortuneo - Vital Concept00:17:29  +  00:01:25=48,046 
149 FRAThomas BoudatFRADirect Energie00:17:31  +  00:01:27=47,954 
150 FRAYohann GèneFRADirect Energie00:17:31  +  00:01:27=47,954 
151 FRAAngelo TulikFRADirect Energie00:17:31  +  00:01:27=47,954 
152 KAZBakhtiyar KozhatayevKAZAstana Pro Team00:17:32  +  00:01:28=47,909 
153 FRAJulien SimonFRACofidis – Solutions Crédits00:17:33  +  00:01:29=47,863 
154 AUTMarco HallerCHETeam Katusha - Alpecin00:17:33  +  00:01:29=47,863 
155 FRAYoann OffredoBELWanty – Groupe Gobert00:17:33  +  00:01:29=47,863 
156 FRAArthur VichotFRAFDJ00:17:33  +  00:01:29=47,863 
157 BELThomas DegandBELWanty – Groupe Gobert00:17:33  +  00:01:29=47,863 
158 FRAThomas VoecklerFRADirect Energie00:17:36  +  00:01:32=47,727 
159 POLPawel PoljanskiDEUBora–Hansgrohe00:17:36  +  00:01:32=47,727 
160 BELPieter VanspeybrouckBELWanty – Groupe Gobert00:17:40  +  00:01:36=47,547 
161 SVKJuraj SaganDEUBora–Hansgrohe00:17:41  +  00:01:37=47,502 
162 NZLGeorge BennettNLDTeam Lotto NL - Jumbo00:17:41  +  00:01:37=47,502 
163 FRALaurent PichonFRAFortuneo - Vital Concept00:17:43  +  00:01:39=47,413 
164 SLOBorut BozicBHRBahrain-Merida00:17:44  +  00:01:40=47,368 
165 ITADavide CimolaiFRAFDJ00:17:44  +  00:01:40=47,368 
166 DDRRüdiger SeligDEUBora–Hansgrohe00:17:45  +  00:01:41=47,324 
167 FRAGuillaume MartinBELWanty – Groupe Gobert00:17:46  +  00:01:42=47,280 
168 AUTBernhard EiselZAFDimension Data00:17:46  +  00:01:42=47,280 
169 FRACyril GautierFRAAg2r La Mondiale00:17:47  +  00:01:43=47,235 
170 KAZAndrey ZeitsKAZAstana Pro Team00:17:47  +  00:01:43=47,235 
171 NEDMarco MinnaardBELWanty – Groupe Gobert00:17:47  +  00:01:43=47,235 
172 GERMarcus BurghardtDEUBora–Hansgrohe00:17:47  +  00:01:43=47,235 
173 FRARomain HardyFRAFortuneo - Vital Concept00:17:49  +  00:01:45=47,147 
174 FRAAdrien PetitFRADirect Energie00:17:49  +  00:01:45=47,147 
175 JPNYukiya ArashiroBHRBahrain-Merida00:17:50  +  00:01:46=47,103 
176 IOMMark CavendishZAFDimension Data00:17:50  +  00:01:46=47,103 
177 FRAPerrig QuemeneurFRADirect Energie00:17:51  +  00:01:47=47,059 
178 NZLDion SmithBELWanty – Groupe Gobert00:17:51  +  00:01:47=47,059 
179 ITAJacopo GuarnieriFRAFDJ00:17:52  +  00:01:48=47,015 
180 NZLPaddy BevinUSACannondale-Drapac Pro Cycling ..00:17:52  +  00:01:48=47,015 
181 ENGScott ThwaitesZAFDimension Data00:17:54  +  00:01:50=46,927 
182 WALLuke RoweGBRSky Procycling00:17:54  +  00:01:50=46,927 
183 AUSMark RenshawZAFDimension Data00:17:54  +  00:01:50=46,927 
184 BELGuillaume Van KeirsbulckBELWanty – Groupe Gobert00:17:58  +  00:01:54=46,753 
185 NEDDylan GroenewegenNLDTeam Lotto NL - Jumbo00:17:58  +  00:01:54=46,753 
186 ESPDaniel NavarroFRACofidis – Solutions Crédits00:18:01  +  00:01:57=46,623 
187 HRVKristijan DurasekUAEUAE Team Emirates00:18:01  +  00:01:57=46,623 
188 AUSAdam HansenBELLotto Soudal00:18:03  +  00:01:59=46,537 
189 NEDRoy CurversDEUTeam Sunweb00:18:16  +  00:02:12=45,985 
190 GERRick ZabelCHETeam Katusha - Alpecin00:18:16  +  00:02:12=45,985 
191 HRVRobert KiserlovskiCHETeam Katusha - Alpecin00:18:17  +  00:02:13=45,943 
192 ESPLuis Angel MateFRACofidis – Solutions Crédits00:18:17  +  00:02:13=45,943 
193 FRANacer BouhanniFRACofidis – Solutions Crédits00:18:27  +  00:02:23=45,528 
194 COLDarwin AtapumaUAEUAE Team Emirates00:18:30  +  00:02:26=45,405 
195 AUSLuke DurbridgeAUSOrica - Scott00:19:05  +  00:03:01=44,017 
196 FRATony GallopinBELLotto Soudal00:19:07  +  00:03:03=43,941 

Withdrawls: 2
 
Rider
Team
Reason
29  ESPAlejandro ValverdeESPMovistar TeamDid not finish
191  ESPJon Izaguirre InsaustiBHRBahrain-MeridaDid not finish

Todays birthdays.

1890  Maurice Lartigue
1892  Mosé Arosio
1896  Henri Drapel
1919  Bernardo Capo
1920  Kléber Piot
1926  Victorio Garcia
1946  Lucien Van Impe
1946  Pierfranco Vianelli
1948  Jacques Boulas
1948  Yves Hézard
1962  Jan Goessens
1962  Jens Veggerby
1980  Patrik Sinkewitz
1986  Wesley Sulzberger